Location: Burera
(21.3780°N, 81.9534°E)
Time: 11:12:42
(UTC+00:00)

Okean-O - Pass Details

Date: 13 August 2020
Orbit: 639 x 640 km, 98.2° (Epoch: 22 September)

Event Time Altitude Azimuth Distance (km) Brightness Sun altitude
Rises 13:33:44 0° 182° (S) 2,929 5.8 -7.5°
Reaches altitude 10° 13:36:01 10° 189° (S) 2,022 5.1 -8.0°
Maximum altitude 13:40:10 41° 260° (W) 921 4.0 -8.9°
Drops below altitude 10° 13:44:21 10° 331° (NNW) 2,029 6.0 -9.8°
Sets 13:46:40 0° 338° (NNW) 2,940 6.7 -10.3°
